Year,Month,Day,Hour,Minute,Value (Times are PST for windspeed in km/hr)
2015,08,30,00,00,2.30
2015,08,30,00,01,3.00
2015,08,30,00,02,3.60
2015,08,30,00,03,3.90
2015,08,30,00,04,3.50
2015,08,30,00,05,3.30
2015,08,30,00,06,2.00
2015,08,30,00,07,3.20
2015,08,30,00,08,3.30
2015,08,30,00,09,5.10
2015,08,30,00,10,6.00
2015,08,30,00,11,5.50
2015,08,30,00,12,5.50
2015,08,30,00,13,5.90
2015,08,30,00,14,5.60
2015,08,30,00,15,5.80
2015,08,30,00,16,5.40
2015,08,30,00,17,5.90
2015,08,30,00,18,5.60
2015,08,30,00,19,5.00
2015,08,30,00,20,5.80
2015,08,30,00,21,6.00
2015,08,30,00,22,4.70
2015,08,30,00,23,4.60
2015,08,30,00,24,5.90
2015,08,30,00,25,4.70
2015,08,30,00,26,3.50
2015,08,30,00,27,4.10
2015,08,30,00,28,3.00
2015,08,30,00,29,3.50
2015,08,30,00,30,4.70
2015,08,30,00,31,4.80
2015,08,30,00,32,4.70
2015,08,30,00,33,3.50
2015,08,30,00,34,3.70
2015,08,30,00,35,2.70
2015,08,30,00,36,4.30
2015,08,30,00,37,3.80
2015,08,30,00,38,4.20
2015,08,30,00,39,4.40
2015,08,30,00,40,3.10
2015,08,30,00,41,4.30
2015,08,30,00,42,4.30
2015,08,30,00,43,5.70
2015,08,30,00,44,5.80
2015,08,30,00,45,5.40
2015,08,30,00,46,3.60
2015,08,30,00,47,4.40
2015,08,30,00,48,5.40
2015,08,30,00,49,4.30
2015,08,30,00,50,4.30
2015,08,30,00,51,3.50
2015,08,30,00,52,4.10
2015,08,30,00,53,6.00
2015,08,30,00,54,5.20
2015,08,30,00,55,7.30
2015,08,30,00,56,8.50
2015,08,30,00,57,5.30
2015,08,30,00,58,5.30
2015,08,30,00,59,6.50
2015,08,30,01,00,6.80
2015,08,30,01,01,9.70
2015,08,30,01,02,8.20
2015,08,30,01,03,8.20
2015,08,30,01,04,5.60
2015,08,30,01,05,7.00
2015,08,30,01,06,7.80
2015,08,30,01,07,7.00
2015,08,30,01,08,8.80
2015,08,30,01,09,9.10
2015,08,30,01,10,7.50
2015,08,30,01,11,6.80
2015,08,30,01,12,6.90
2015,08,30,01,13,7.60
2015,08,30,01,14,5.90
2015,08,30,01,15,6.00
2015,08,30,01,16,5.30
2015,08,30,01,17,6.30
2015,08,30,01,18,8.50
2015,08,30,01,19,10.90
2015,08,30,01,20,4.30
2015,08,30,01,21,6.80
2015,08,30,01,22,9.40
2015,08,30,01,23,5.30
2015,08,30,01,24,5.60
2015,08,30,01,25,7.50
2015,08,30,01,26,6.90
2015,08,30,01,27,5.60
2015,08,30,01,28,9.00
2015,08,30,01,29,8.90
2015,08,30,01,30,9.80
2015,08,30,01,31,7.80
2015,08,30,01,32,8.70
2015,08,30,01,33,7.00
2015,08,30,01,34,7.50
2015,08,30,01,35,7.20
2015,08,30,01,36,7.20
2015,08,30,01,37,7.30
2015,08,30,01,38,5.80
2015,08,30,01,39,7.10
2015,08,30,01,40,8.10
2015,08,30,01,41,7.30
2015,08,30,01,42,6.70
2015,08,30,01,43,7.10
2015,08,30,01,44,4.40
2015,08,30,01,45,6.10
2015,08,30,01,46,4.40
2015,08,30,01,47,4.40
2015,08,30,01,48,5.00
2015,08,30,01,49,4.50
2015,08,30,01,50,5.60
2015,08,30,01,51,5.60
2015,08,30,01,52,4.10
2015,08,30,01,53,4.00
2015,08,30,01,54,4.60
2015,08,30,01,55,4.70
2015,08,30,01,56,5.00
2015,08,30,01,57,3.50
2015,08,30,01,58,2.90
2015,08,30,01,59,3.30
2015,08,30,02,00,2.60
2015,08,30,02,01,3.40
2015,08,30,02,02,2.50
2015,08,30,02,03,1.60
2015,08,30,02,04,0.60
2015,08,30,02,05,0.10
2015,08,30,02,06,0.00
2015,08,30,02,07,1.40
2015,08,30,02,08,3.20
2015,08,30,02,09,2.60
2015,08,30,02,10,0.20
2015,08,30,02,11,1.70
2015,08,30,02,12,1.40
2015,08,30,02,13,3.10
2015,08,30,02,14,4.00
2015,08,30,02,15,3.10
2015,08,30,02,16,2.70
2015,08,30,02,17,1.40
2015,08,30,02,18,0.10
2015,08,30,02,19,0.00
2015,08,30,02,20,0.00
2015,08,30,02,21,0.10
2015,08,30,02,22,0.00
2015,08,30,02,23,0.00
2015,08,30,02,24,0.00
2015,08,30,02,25,0.00
2015,08,30,02,26,0.00
2015,08,30,02,27,0.80
2015,08,30,02,28,4.00
2015,08,30,02,29,4.00
2015,08,30,02,30,2.10
2015,08,30,02,31,2.20
2015,08,30,02,32,0.40
2015,08,30,02,33,4.30
2015,08,30,02,34,3.90
2015,08,30,02,35,2.70
2015,08,30,02,36,1.60
2015,08,30,02,37,0.10
2015,08,30,02,38,1.40
2015,08,30,02,39,0.60
2015,08,30,02,40,0.60
2015,08,30,02,41,0.10
2015,08,30,02,42,0.00
2015,08,30,02,43,0.00
2015,08,30,02,44,0.00
2015,08,30,02,45,0.10
2015,08,30,02,46,0.10
2015,08,30,02,47,2.50
2015,08,30,02,48,5.20
2015,08,30,02,49,6.70
2015,08,30,02,50,5.60
2015,08,30,02,51,5.50
2015,08,30,02,52,5.10
2015,08,30,02,53,4.40
2015,08,30,02,54,6.40
2015,08,30,02,55,7.00
2015,08,30,02,56,5.30
2015,08,30,02,57,4.90
2015,08,30,02,58,6.10
2015,08,30,02,59,6.00
2015,08,30,03,00,3.70
2015,08,30,03,01,4.00
2015,08,30,03,02,4.40
2015,08,30,03,03,5.40
2015,08,30,03,04,4.50
2015,08,30,03,05,4.60
2015,08,30,03,06,5.80
2015,08,30,03,07,6.40
2015,08,30,03,08,4.40
2015,08,30,03,09,2.50
2015,08,30,03,10,3.20
2015,08,30,03,11,5.10
2015,08,30,03,12,2.40
2015,08,30,03,13,1.30
2015,08,30,03,14,3.60
2015,08,30,03,15,4.40
2015,08,30,03,16,4.20
2015,08,30,03,17,1.90
2015,08,30,03,18,1.00
2015,08,30,03,19,3.40
2015,08,30,03,20,3.00
2015,08,30,03,21,2.50
2015,08,30,03,22,1.60
2015,08,30,03,23,3.50
2015,08,30,03,24,5.60
2015,08,30,03,25,5.60
2015,08,30,03,26,4.00
2015,08,30,03,27,5.10
2015,08,30,03,28,3.70
2015,08,30,03,29,4.60
2015,08,30,03,30,4.50
2015,08,30,03,31,3.90
2015,08,30,03,32,2.80
2015,08,30,03,33,1.30
2015,08,30,03,34,3.90
2015,08,30,03,35,2.50
2015,08,30,03,36,3.60
2015,08,30,03,37,4.20
2015,08,30,03,38,4.40
2015,08,30,03,39,3.90
2015,08,30,03,40,6.60
2015,08,30,03,41,6.20
2015,08,30,03,42,6.80
2015,08,30,03,43,6.90
2015,08,30,03,44,7.60
2015,08,30,03,45,6.80
2015,08,30,03,46,6.80
2015,08,30,03,47,6.20
2015,08,30,03,48,5.80
2015,08,30,03,49,6.20
2015,08,30,03,50,9.70
2015,08,30,03,51,9.30
2015,08,30,03,52,5.90
2015,08,30,03,53,11.50
2015,08,30,03,54,7.50
2015,08,30,03,55,7.50
2015,08,30,03,56,7.00
2015,08,30,03,57,7.70
2015,08,30,03,58,7.50
2015,08,30,03,59,7.20
2015,08,30,04,00,6.20
2015,08,30,04,01,8.10
2015,08,30,04,02,5.40
2015,08,30,04,03,7.80
2015,08,30,04,04,7.20
2015,08,30,04,05,6.80
2015,08,30,04,06,5.20
2015,08,30,04,07,6.40
2015,08,30,04,08,6.90
2015,08,30,04,09,6.00
2015,08,30,04,10,6.50
2015,08,30,04,11,7.70
2015,08,30,04,12,9.00
2015,08,30,04,13,5.70
2015,08,30,04,14,6.70
2015,08,30,04,15,6.30
2015,08,30,04,16,6.40
2015,08,30,04,17,6.20
2015,08,30,04,18,4.70
2015,08,30,04,19,5.70
2015,08,30,04,20,4.90
2015,08,30,04,21,4.10
2015,08,30,04,22,5.40
2015,08,30,04,23,5.00
2015,08,30,04,24,5.30
2015,08,30,04,25,5.60
2015,08,30,04,26,6.60
2015,08,30,04,27,5.50
2015,08,30,04,28,5.60
2015,08,30,04,29,5.40
2015,08,30,04,30,4.10
2015,08,30,04,31,5.90
2015,08,30,04,32,4.30
2015,08,30,04,33,4.30
2015,08,30,04,34,3.60
2015,08,30,04,35,4.50
2015,08,30,04,36,5.30
2015,08,30,04,37,5.50
2015,08,30,04,38,4.70
2015,08,30,04,39,5.50
2015,08,30,04,40,5.60
2015,08,30,04,41,5.50
2015,08,30,04,42,5.60
2015,08,30,04,43,6.20
2015,08,30,04,44,6.20
2015,08,30,04,45,5.60
2015,08,30,04,46,5.60
2015,08,30,04,47,5.10
2015,08,30,04,48,5.70
2015,08,30,04,49,5.80
2015,08,30,04,50,5.80
2015,08,30,04,51,5.80
2015,08,30,04,52,5.70
2015,08,30,04,53,6.60
2015,08,30,04,54,5.30
2015,08,30,04,55,5.20
2015,08,30,04,56,8.00
2015,08,30,04,57,5.70
2015,08,30,04,58,5.90
2015,08,30,04,59,6.00
2015,08,30,05,00,7.10
2015,08,30,05,01,5.40
2015,08,30,05,02,4.60
2015,08,30,05,03,2.80
2015,08,30,05,04,4.10
2015,08,30,05,05,4.50
2015,08,30,05,06,3.90
2015,08,30,05,07,4.40
2015,08,30,05,08,4.00
2015,08,30,05,09,4.00
2015,08,30,05,10,5.50
2015,08,30,05,11,4.10
2015,08,30,05,12,3.90
2015,08,30,05,13,6.80
2015,08,30,05,14,6.00
2015,08,30,05,15,4.50
2015,08,30,05,16,4.70
2015,08,30,05,17,5.80
2015,08,30,05,18,5.60
2015,08,30,05,19,6.20
2015,08,30,05,20,4.90
2015,08,30,05,21,5.70
2015,08,30,05,22,4.70
2015,08,30,05,23,4.00
2015,08,30,05,24,3.10
2015,08,30,05,25,2.80
2015,08,30,05,26,2.80
2015,08,30,05,27,3.50
2015,08,30,05,28,1.70
2015,08,30,05,29,2.60
2015,08,30,05,30,4.10
2015,08,30,05,31,2.40
2015,08,30,05,32,2.70
2015,08,30,05,33,4.70
2015,08,30,05,34,3.90
2015,08,30,05,35,4.80
2015,08,30,05,36,3.30
2015,08,30,05,37,1.10
2015,08,30,05,38,4.20
2015,08,30,05,39,5.50
2015,08,30,05,40,6.40
2015,08,30,05,41,5.50
2015,08,30,05,42,5.50
2015,08,30,05,43,3.50
2015,08,30,05,44,4.30
2015,08,30,05,45,5.30
2015,08,30,05,46,2.70
2015,08,30,05,47,1.40
2015,08,30,05,48,3.70
2015,08,30,05,49,3.10
2015,08,30,05,50,3.20
2015,08,30,05,51,3.00
2015,08,30,05,52,3.70
2015,08,30,05,53,2.70
2015,08,30,05,54,3.10
2015,08,30,05,55,3.70
2015,08,30,05,56,2.90
2015,08,30,05,57,4.80
2015,08,30,05,58,5.10
2015,08,30,05,59,4.60
2015,08,30,06,00,4.30
2015,08,30,06,01,3.90
2015,08,30,06,02,4.90
2015,08,30,06,03,4.10
2015,08,30,06,04,3.70
2015,08,30,06,05,5.30
2015,08,30,06,06,5.00
2015,08,30,06,07,5.40
2015,08,30,06,08,6.30
2015,08,30,06,09,5.50
2015,08,30,06,10,4.80
2015,08,30,06,11,4.00
2015,08,30,06,12,6.00
2015,08,30,06,13,4.80
2015,08,30,06,14,3.50
2015,08,30,06,15,3.40
2015,08,30,06,16,2.60
2015,08,30,06,17,3.10
2015,08,30,06,18,2.70
2015,08,30,06,19,3.70
2015,08,30,06,20,3.20
2015,08,30,06,21,4.00
2015,08,30,06,22,2.90
2015,08,30,06,23,3.40
2015,08,30,06,24,2.80
2015,08,30,06,25,3.50
2015,08,30,06,26,4.10
2015,08,30,06,27,3.80
2015,08,30,06,28,4.90
2015,08,30,06,29,4.60
2015,08,30,06,30,5.40
2015,08,30,06,31,5.10
2015,08,30,06,32,6.60
2015,08,30,06,33,6.70
2015,08,30,06,34,6.00
2015,08,30,06,35,5.90
2015,08,30,06,36,5.10
2015,08,30,06,37,4.70
2015,08,30,06,38,5.50
2015,08,30,06,39,4.60
2015,08,30,06,40,3.90
2015,08,30,06,41,3.70
2015,08,30,06,42,5.60
2015,08,30,06,43,4.70
2015,08,30,06,44,4.20
2015,08,30,06,45,5.30
2015,08,30,06,46,4.90
2015,08,30,06,47,6.00
2015,08,30,06,48,7.90
2015,08,30,06,49,7.70
2015,08,30,06,50,6.90
2015,08,30,06,51,7.70
2015,08,30,06,52,8.70
2015,08,30,06,53,9.90
2015,08,30,06,54,11.70
2015,08,30,06,55,9.90
2015,08,30,06,56,10.80
2015,08,30,06,57,13.30
2015,08,30,06,58,9.50
2015,08,30,06,59,11.90
2015,08,30,07,00,13.00
2015,08,30,07,01,8.80
2015,08,30,07,02,9.60
2015,08,30,07,03,8.10
2015,08,30,07,04,11.00
2015,08,30,07,05,9.30
2015,08,30,07,06,11.10
2015,08,30,07,07,8.00
2015,08,30,07,08,6.80
2015,08,30,07,09,9.10
2015,08,30,07,10,9.10
2015,08,30,07,11,8.90
2015,08,30,07,12,7.10
2015,08,30,07,13,7.70
2015,08,30,07,14,8.90
2015,08,30,07,15,11.20
2015,08,30,07,16,9.20
2015,08,30,07,17,13.00
2015,08,30,07,18,11.60
2015,08,30,07,19,10.30
2015,08,30,07,20,8.50
2015,08,30,07,21,9.90
2015,08,30,07,22,13.90
2015,08,30,07,23,12.10
2015,08,30,07,24,11.40
2015,08,30,07,25,10.20
2015,08,30,07,26,6.80
2015,08,30,07,27,9.20
2015,08,30,07,28,7.30
2015,08,30,07,29,9.40
2015,08,30,07,30,7.70
2015,08,30,07,31,12.60
2015,08,30,07,32,8.00
2015,08,30,07,33,11.20
2015,08,30,07,34,9.80
2015,08,30,07,35,7.70
2015,08,30,07,36,8.70
2015,08,30,07,37,8.10
2015,08,30,07,38,5.10
2015,08,30,07,39,5.70
2015,08,30,07,40,9.20
2015,08,30,07,41,8.30
2015,08,30,07,42,6.80
2015,08,30,07,43,6.40
2015,08,30,07,44,6.80
2015,08,30,07,45,4.90
2015,08,30,07,46,4.80
2015,08,30,07,47,5.00
2015,08,30,07,48,7.30
2015,08,30,07,49,6.40
2015,08,30,07,50,6.40
2015,08,30,07,51,6.60
2015,08,30,07,52,4.40
2015,08,30,07,53,7.40
2015,08,30,07,54,9.00
2015,08,30,07,55,6.80
2015,08,30,07,56,7.30
2015,08,30,07,57,7.50
2015,08,30,07,58,7.10
2015,08,30,07,59,5.10
2015,08,30,08,00,5.00
2015,08,30,08,01,7.40
2015,08,30,08,02,6.90
2015,08,30,08,03,8.10
2015,08,30,08,04,6.80
2015,08,30,08,05,5.60
2015,08,30,08,06,4.90
2015,08,30,08,07,5.70
2015,08,30,08,08,6.70
2015,08,30,08,09,8.50
2015,08,30,08,10,7.30
2015,08,30,08,11,8.10
2015,08,30,08,12,8.60
2015,08,30,08,13,13.70
2015,08,30,08,14,9.00
2015,08,30,08,15,9.80
2015,08,30,08,16,9.30
2015,08,30,08,17,9.90
2015,08,30,08,18,7.00
2015,08,30,08,19,9.30
2015,08,30,08,20,7.10
2015,08,30,08,21,6.90
2015,08,30,08,22,5.90
2015,08,30,08,23,7.50
2015,08,30,08,24,4.70
2015,08,30,08,25,3.60
2015,08,30,08,26,6.80
2015,08,30,08,27,7.20
2015,08,30,08,28,7.10
2015,08,30,08,29,6.40
2015,08,30,08,30,7.20
2015,08,30,08,31,8.90
2015,08,30,08,32,11.80
2015,08,30,08,33,8.20
2015,08,30,08,34,10.40
2015,08,30,08,35,10.30
2015,08,30,08,36,13.50
2015,08,30,08,37,5.30
2015,08,30,08,38,7.40
2015,08,30,08,39,10.10
2015,08,30,08,40,11.00
2015,08,30,08,41,10.10
2015,08,30,08,42,8.40
2015,08,30,08,43,11.10
2015,08,30,08,44,12.30
2015,08,30,08,45,10.30
2015,08,30,08,46,7.70
2015,08,30,08,47,10.10
2015,08,30,08,48,8.70
2015,08,30,08,49,5.90
2015,08,30,08,50,8.80
2015,08,30,08,51,6.60
2015,08,30,08,52,7.20
2015,08,30,08,53,8.90
2015,08,30,08,54,6.60
2015,08,30,08,55,12.70
2015,08,30,08,56,12.60
2015,08,30,08,57,9.90
2015,08,30,08,58,10.80
2015,08,30,08,59,14.00
2015,08,30,09,00,12.80
2015,08,30,09,01,12.30
2015,08,30,09,02,9.30
2015,08,30,09,03,10.40
2015,08,30,09,04,10.50
2015,08,30,09,05,8.80
2015,08,30,09,06,8.30
2015,08,30,09,07,11.10
2015,08,30,09,08,11.00
2015,08,30,09,09,8.40
2015,08,30,09,10,8.90
2015,08,30,09,11,7.60
2015,08,30,09,12,7.10
2015,08,30,09,13,6.30
2015,08,30,09,14,8.20
2015,08,30,09,15,7.20
2015,08,30,09,16,6.20
2015,08,30,09,17,6.10
2015,08,30,09,18,8.00
2015,08,30,09,19,7.60
2015,08,30,09,20,6.70
2015,08,30,09,21,9.40
2015,08,30,09,22,4.40
2015,08,30,09,23,6.00
2015,08,30,09,24,8.20
2015,08,30,09,25,9.00
2015,08,30,09,26,12.20
2015,08,30,09,27,8.50
2015,08,30,09,28,6.30
2015,08,30,09,29,9.10
2015,08,30,09,30,8.90
2015,08,30,09,31,11.00
2015,08,30,09,32,12.80
2015,08,30,09,33,8.70
2015,08,30,09,34,9.30
2015,08,30,09,35,12.10
2015,08,30,09,36,9.90
2015,08,30,09,37,8.70
2015,08,30,09,38,10.50
2015,08,30,09,39,10.00
2015,08,30,09,40,10.90
2015,08,30,09,41,10.30
2015,08,30,09,42,11.90
2015,08,30,09,43,9.90
2015,08,30,09,44,11.30
2015,08,30,09,45,7.70
2015,08,30,09,46,10.80
2015,08,30,09,47,12.20
2015,08,30,09,48,10.30
2015,08,30,09,49,9.10
2015,08,30,09,50,8.10
2015,08,30,09,51,10.10
2015,08,30,09,52,11.60
2015,08,30,09,53,13.20
2015,08,30,09,54,8.10
2015,08,30,09,55,10.10
2015,08,30,09,56,10.40
2015,08,30,09,57,11.10
2015,08,30,09,58,13.50
2015,08,30,09,59,10.10
2015,08,30,10,00,16.00
2015,08,30,10,01,17.30
2015,08,30,10,02,16.80
2015,08,30,10,03,15.50
2015,08,30,10,04,12.00
2015,08,30,10,05,8.20
2015,08,30,10,06,9.30
2015,08,30,10,07,11.20
2015,08,30,10,08,10.50
2015,08,30,10,09,10.90
2015,08,30,10,10,7.70
2015,08,30,10,11,8.00
2015,08,30,10,12,8.70
2015,08,30,10,13,11.90
2015,08,30,10,14,14.60
2015,08,30,10,15,9.30
2015,08,30,10,16,13.80
2015,08,30,10,17,11.90
2015,08,30,10,18,11.30
2015,08,30,10,19,13.80
2015,08,30,10,20,13.40
2015,08,30,10,21,14.80
2015,08,30,10,22,13.30
2015,08,30,10,23,12.20
2015,08,30,10,24,14.80
2015,08,30,10,25,12.30
2015,08,30,10,26,11.90
2015,08,30,10,27,8.00
2015,08,30,10,28,11.20
2015,08,30,10,29,10.60
2015,08,30,10,30,13.60
2015,08,30,10,31,11.60
2015,08,30,10,32,11.10
2015,08,30,10,33,9.50
2015,08,30,10,34,11.30
2015,08,30,10,35,13.40
2015,08,30,10,36,9.70
2015,08,30,10,37,10.10
2015,08,30,10,38,12.60
2015,08,30,10,39,12.00
2015,08,30,10,40,12.00
2015,08,30,10,41,14.80
2015,08,30,10,42,13.40
2015,08,30,10,43,15.30
2015,08,30,10,44,12.50
2015,08,30,10,45,9.90
2015,08,30,10,46,11.50
2015,08,30,10,47,12.30
2015,08,30,10,48,15.10
2015,08,30,10,49,9.20
2015,08,30,10,50,12.90
2015,08,30,10,51,13.90
2015,08,30,10,52,15.40
2015,08,30,10,53,13.70
2015,08,30,10,54,12.10
2015,08,30,10,55,12.70
2015,08,30,10,56,12.20
2015,08,30,10,57,12.40
2015,08,30,10,58,14.30
2015,08,30,10,59,10.40
2015,08,30,11,00,11.40
2015,08,30,11,01,14.70
2015,08,30,11,02,13.80
2015,08,30,11,03,10.60
2015,08,30,11,04,9.30
2015,08,30,11,05,9.90
2015,08,30,11,06,11.80
2015,08,30,11,07,8.70
2015,08,30,11,08,8.40
2015,08,30,11,09,5.50
2015,08,30,11,10,8.00
2015,08,30,11,11,6.10
2015,08,30,11,12,12.10
2015,08,30,11,13,15.00
2015,08,30,11,14,9.30
2015,08,30,11,15,13.80
2015,08,30,11,16,7.60
2015,08,30,11,17,6.80
2015,08,30,11,18,7.80
2015,08,30,11,19,11.70
2015,08,30,11,20,7.70
2015,08,30,11,21,14.60
2015,08,30,11,22,16.30
2015,08,30,11,23,16.70
2015,08,30,11,24,10.10
2015,08,30,11,25,11.30
2015,08,30,11,26,14.60
2015,08,30,11,27,17.60
2015,08,30,11,28,10.30
2015,08,30,11,29,7.40
2015,08,30,11,30,11.40
2015,08,30,11,31,9.80
2015,08,30,11,32,14.50
2015,08,30,11,33,12.30
2015,08,30,11,34,14.20
2015,08,30,11,35,14.80
2015,08,30,11,36,16.40
2015,08,30,11,37,12.90
2015,08,30,11,38,10.30
2015,08,30,11,39,12.00
2015,08,30,11,40,17.10
2015,08,30,11,41,9.90
2015,08,30,11,42,8.50
2015,08,30,11,43,17.30
2015,08,30,11,44,13.50
2015,08,30,11,45,9.40
2015,08,30,11,46,8.50
2015,08,30,11,47,15.80
2015,08,30,11,48,15.20
2015,08,30,11,49,8.80
2015,08,30,11,50,9.30
2015,08,30,11,51,11.70
2015,08,30,11,52,16.50
2015,08,30,11,53,12.70
2015,08,30,11,54,10.80
2015,08,30,11,55,6.70
2015,08,30,11,56,13.90
2015,08,30,11,57,9.30
2015,08,30,11,58,12.20
2015,08,30,11,59,15.00
2015,08,30,12,00,18.50
2015,08,30,12,01,12.50
2015,08,30,12,02,6.70
2015,08,30,12,03,12.90
2015,08,30,12,04,11.00
2015,08,30,12,05,14.60
2015,08,30,12,06,13.40
2015,08,30,12,07,10.20
2015,08,30,12,08,13.70
2015,08,30,12,09,8.60
2015,08,30,12,10,8.30
2015,08,30,12,11,8.10
2015,08,30,12,12,12.00
2015,08,30,12,13,11.30
2015,08,30,12,14,3.80
2015,08,30,12,15,7.80
2015,08,30,12,16,14.10
2015,08,30,12,17,11.50
2015,08,30,12,18,17.00
2015,08,30,12,19,11.80
2015,08,30,12,20,13.30
2015,08,30,12,21,12.60
2015,08,30,12,22,10.20
2015,08,30,12,23,6.60
2015,08,30,12,24,6.10
2015,08,30,12,25,13.00
2015,08,30,12,26,13.40
2015,08,30,12,27,7.60
2015,08,30,12,28,11.60
2015,08,30,12,29,15.80
2015,08,30,12,30,13.30
2015,08,30,12,31,13.00
2015,08,30,12,32,10.60
2015,08,30,12,33,9.80
2015,08,30,12,34,12.20
2015,08,30,12,35,6.50
2015,08,30,12,36,6.50
2015,08,30,12,37,10.00
2015,08,30,12,38,15.40
2015,08,30,12,39,12.70
2015,08,30,12,40,12.20
2015,08,30,12,41,13.90
2015,08,30,12,42,12.90
2015,08,30,12,43,11.40
2015,08,30,12,44,11.20
2015,08,30,12,45,13.30
2015,08,30,12,46,13.00
2015,08,30,12,47,15.90
2015,08,30,12,48,11.80
2015,08,30,12,49,18.90
2015,08,30,12,50,9.90
2015,08,30,12,51,14.80
2015,08,30,12,52,12.60
2015,08,30,12,53,9.60
2015,08,30,12,54,11.30
2015,08,30,12,55,10.40
2015,08,30,12,56,14.30
2015,08,30,12,57,9.50
2015,08,30,12,58,12.10
2015,08,30,12,59,12.50
2015,08,30,13,00,9.80
2015,08,30,13,01,11.10
2015,08,30,13,02,9.00
2015,08,30,13,03,14.30
2015,08,30,13,04,9.60
2015,08,30,13,05,9.50
2015,08,30,13,06,8.50
2015,08,30,13,07,10.20
2015,08,30,13,08,6.70
2015,08,30,13,09,6.40
2015,08,30,13,10,6.40
2015,08,30,13,11,8.10
2015,08,30,13,12,11.10
2015,08,30,13,13,14.50
2015,08,30,13,14,12.80
2015,08,30,13,15,11.70
2015,08,30,13,16,8.00
2015,08,30,13,17,9.90
2015,08,30,13,18,13.50
2015,08,30,13,19,13.20
2015,08,30,13,20,10.70
2015,08,30,13,21,8.80
2015,08,30,13,22,6.50
2015,08,30,13,23,9.70
2015,08,30,13,24,7.50
2015,08,30,13,25,8.10
2015,08,30,13,26,10.00
2015,08,30,13,27,10.90
2015,08,30,13,28,9.30
2015,08,30,13,29,7.80
2015,08,30,13,30,7.30
2015,08,30,13,31,11.70
2015,08,30,13,32,15.40
2015,08,30,13,33,12.00
2015,08,30,13,34,9.30
2015,08,30,13,35,8.00
2015,08,30,13,36,10.00
2015,08,30,13,37,10.90
2015,08,30,13,38,17.30
2015,08,30,13,39,9.00
2015,08,30,13,40,9.50
2015,08,30,13,41,15.20
2015,08,30,13,42,6.90
2015,08,30,13,43,8.00
2015,08,30,13,44,15.80
2015,08,30,13,45,13.30
2015,08,30,13,46,12.70
2015,08,30,13,47,10.30
2015,08,30,13,48,6.80
2015,08,30,13,49,8.30
2015,08,30,13,50,6.80
2015,08,30,13,51,8.50
2015,08,30,13,52,11.90
2015,08,30,13,53,12.90
2015,08,30,13,54,9.90
2015,08,30,13,55,9.00
2015,08,30,13,56,13.20
2015,08,30,13,57,13.70
2015,08,30,13,58,11.90
2015,08,30,13,59,7.00
2015,08,30,14,00,16.80
2015,08,30,14,01,7.00
2015,08,30,14,02,11.90
2015,08,30,14,03,14.40
2015,08,30,14,04,11.70
2015,08,30,14,05,8.10
2015,08,30,14,06,8.90
2015,08,30,14,07,8.10
2015,08,30,14,08,6.10
2015,08,30,14,09,6.50
2015,08,30,14,10,10.00
2015,08,30,14,11,11.40
2015,08,30,14,12,10.30
2015,08,30,14,13,6.70
2015,08,30,14,14,8.90
2015,08,30,14,15,13.20
2015,08,30,14,16,13.80
2015,08,30,14,17,18.80
2015,08,30,14,18,12.30
2015,08,30,14,19,6.60
2015,08,30,14,20,14.80
2015,08,30,14,21,13.80
2015,08,30,14,22,13.30
2015,08,30,14,23,16.70
2015,08,30,14,24,18.50
2015,08,30,14,25,17.80
2015,08,30,14,26,14.70
2015,08,30,14,27,16.70
2015,08,30,14,28,13.20
2015,08,30,14,29,20.90
2015,08,30,14,30,16.10
2015,08,30,14,31,12.10
2015,08,30,14,32,9.90
2015,08,30,14,33,13.70
2015,08,30,14,34,15.10
2015,08,30,14,35,17.80
2015,08,30,14,36,13.80
2015,08,30,14,37,13.70
2015,08,30,14,38,15.60
2015,08,30,14,39,11.30
2015,08,30,14,40,12.00
2015,08,30,14,41,17.30
2015,08,30,14,42,14.10
2015,08,30,14,43,10.70
2015,08,30,14,44,7.40
2015,08,30,14,45,8.30
2015,08,30,14,46,14.40
2015,08,30,14,47,14.50
2015,08,30,14,48,20.50
2015,08,30,14,49,17.90
2015,08,30,14,50,17.90
2015,08,30,14,51,18.80
2015,08,30,14,52,14.50
2015,08,30,14,53,17.40
2015,08,30,14,54,18.50
2015,08,30,14,55,12.10
2015,08,30,14,56,15.10
2015,08,30,14,57,13.10
2015,08,30,14,58,20.50
2015,08,30,14,59,15.20
2015,08,30,15,00,11.40
2015,08,30,15,01,16.90
2015,08,30,15,02,18.80
2015,08,30,15,03,16.30
2015,08,30,15,04,15.40
2015,08,30,15,05,14.60
2015,08,30,15,06,15.40
2015,08,30,15,07,14.50
2015,08,30,15,08,13.70
2015,08,30,15,09,10.10
2015,08,30,15,10,11.30
2015,08,30,15,11,14.60
2015,08,30,15,12,8.50
2015,08,30,15,13,9.00
2015,08,30,15,14,11.50
2015,08,30,15,15,11.40
2015,08,30,15,16,10.50
2015,08,30,15,17,14.00
2015,08,30,15,18,8.80
2015,08,30,15,19,12.60
2015,08,30,15,20,9.90
2015,08,30,15,21,11.10
2015,08,30,15,22,10.40
2015,08,30,15,23,12.80
2015,08,30,15,24,10.50
2015,08,30,15,25,7.40
2015,08,30,15,26,10.40
2015,08,30,15,27,12.40
2015,08,30,15,28,12.30
2015,08,30,15,29,6.80
2015,08,30,15,30,12.60
2015,08,30,15,31,16.70
2015,08,30,15,32,13.20
2015,08,30,15,33,20.80
2015,08,30,15,34,13.30
2015,08,30,15,35,6.70
2015,08,30,15,36,7.10
2015,08,30,15,37,9.50
2015,08,30,15,38,8.70
2015,08,30,15,39,6.40
2015,08,30,15,40,10.70
2015,08,30,15,41,14.30
2015,08,30,15,42,20.60
2015,08,30,15,43,12.90
2015,08,30,15,44,11.50
2015,08,30,15,45,16.20
2015,08,30,15,46,6.10
2015,08,30,15,47,10.10
2015,08,30,15,48,6.00
2015,08,30,15,49,9.30
2015,08,30,15,50,7.20
2015,08,30,15,51,3.10
2015,08,30,15,52,12.60
2015,08,30,15,53,7.20
2015,08,30,15,54,9.50
2015,08,30,15,55,16.80
2015,08,30,15,56,12.30
2015,08,30,15,57,6.90
2015,08,30,15,58,5.90
2015,08,30,15,59,9.40
2015,08,30,16,00,8.10
2015,08,30,16,01,11.00
2015,08,30,16,02,14.20
2015,08,30,16,03,8.70
2015,08,30,16,04,8.40
2015,08,30,16,05,9.00
2015,08,30,16,06,4.90
2015,08,30,16,07,4.80
2015,08,30,16,08,4.50
2015,08,30,16,09,4.90
2015,08,30,16,10,4.70
2015,08,30,16,11,7.80
2015,08,30,16,12,7.70
2015,08,30,16,13,8.60
2015,08,30,16,14,9.90
2015,08,30,16,15,11.70
2015,08,30,16,16,11.30
2015,08,30,16,17,14.90
2015,08,30,16,18,7.10
2015,08,30,16,19,12.00
2015,08,30,16,20,7.10
2015,08,30,16,21,6.00
2015,08,30,16,22,6.50
2015,08,30,16,23,3.70
2015,08,30,16,24,7.90
2015,08,30,16,25,12.10
2015,08,30,16,26,19.30
2015,08,30,16,27,9.70
2015,08,30,16,28,6.40
2015,08,30,16,29,4.70
2015,08,30,16,30,2.90
2015,08,30,16,31,3.20
2015,08,30,16,32,3.70
2015,08,30,16,33,5.90
2015,08,30,16,34,10.70
2015,08,30,16,35,10.00
2015,08,30,16,36,8.00
2015,08,30,16,37,4.70
2015,08,30,16,38,13.80
2015,08,30,16,39,18.00
2015,08,30,16,40,8.90
2015,08,30,16,41,9.30
2015,08,30,16,42,14.20
2015,08,30,16,43,9.50
2015,08,30,16,44,11.70
2015,08,30,16,45,7.30
2015,08,30,16,46,5.60
2015,08,30,16,47,6.80
2015,08,30,16,48,6.50
2015,08,30,16,49,4.90
2015,08,30,16,50,8.50
2015,08,30,16,51,7.60
2015,08,30,16,52,9.20
2015,08,30,16,53,9.10
2015,08,30,16,54,9.70
2015,08,30,16,55,7.70
2015,08,30,16,56,9.90
2015,08,30,16,57,3.20
2015,08,30,16,58,0.70
2015,08,30,16,59,6.10
2015,08,30,17,00,6.10
2015,08,30,17,01,6.60
2015,08,30,17,02,8.50
2015,08,30,17,03,9.40
2015,08,30,17,04,10.40
2015,08,30,17,05,9.70
2015,08,30,17,06,6.60
2015,08,30,17,07,4.80
2015,08,30,17,08,2.10
2015,08,30,17,09,2.30
2015,08,30,17,10,3.10
2015,08,30,17,11,4.30
2015,08,30,17,12,3.50
2015,08,30,17,13,8.20
2015,08,30,17,14,13.10
2015,08,30,17,15,12.00
2015,08,30,17,16,13.20
2015,08,30,17,17,12.70
2015,08,30,17,18,5.90
2015,08,30,17,19,5.60
2015,08,30,17,20,4.30
2015,08,30,17,21,18.60
2015,08,30,17,22,13.60
2015,08,30,17,23,8.10
2015,08,30,17,24,6.40
2015,08,30,17,25,5.80
2015,08,30,17,26,11.70
2015,08,30,17,27,8.60
2015,08,30,17,28,8.70
2015,08,30,17,29,4.70
2015,08,30,17,30,8.10
2015,08,30,17,31,7.00
2015,08,30,17,32,8.80
2015,08,30,17,33,5.70
2015,08,30,17,34,12.70
2015,08,30,17,35,15.20
2015,08,30,17,36,14.80
2015,08,30,17,37,14.60
2015,08,30,17,38,9.30
2015,08,30,17,39,8.70
2015,08,30,17,40,11.00
2015,08,30,17,41,6.20
2015,08,30,17,42,7.40
2015,08,30,17,43,6.30
2015,08,30,17,44,11.30
2015,08,30,17,45,9.70
2015,08,30,17,46,9.80
2015,08,30,17,47,17.00
2015,08,30,17,48,13.40
2015,08,30,17,49,9.30
2015,08,30,17,50,4.10
2015,08,30,17,51,3.10